RAVAN (41849 NORAD) Tracking and Keplerian Element Data

This shows tracking and keplerian element data for the satellite.

Feedback or suggestion? Click here.




ElementValue
Catalog41849
NameRAVAN
Epoch Orbit13258
Epoch Day106.81124745
Epoch Year2019
RAAN205.0191
Inclination97.9161
Eccentricity0.0007743
Argument of Perigee219.2071
Mean Anonmoly140.8591
Mean Motion14.98153352
Decay Rate8.8E-06
L11 41849U 16067B 19106.81124745 .00000880 00000-0 79368-4 0 9998
L22 41849 97.9161 205.0191 0007743 219.2071 140.8591 14.98153352132580

Live tracking and technical data element details for RAVAN (NORAD 41849). RAVAN can be tracked NOW for your location showing map with azimuth and elevation plus other details from your city location.

Track the satellite on the map from your city or location and see movement details for azimuth, elevation, latitude, longitude, range, height, and movement on the map or in text.







IsCatalogInMostPopularTable: catalog: 41849, numindb: 184
Update: records affected: 1



GetName: 41849 RAVAN

Hit Count: updated at: Sat, 20 Apr 2019 00:12:37 GMT